Klawock, AK

2:47 PM AKDT on August 22, 2017 (GMT -0800)
Klawock

Weather History for PAKW - May, 2013

Change the Weather History Date:

Tuesday, May 7, 2013

  Actual Average Record
Temperature  
Mean Temperature 46 °F -  
Max Temperature 59 °F 52 °F 71 °F (2005)
Min Temperature 34 °F 35 °F 30 °F (2002)
Degree Days  
Heating Degree Days 20    
Moisture  
Dew Point 37 °F    
Average Humidity 79    
Maximum Humidity 100    
Minimum Humidity 45    
Precipitation  
Precipitation 0.00 in - - ()
Sea Level Pressure  
Sea Level Pressure 30.12 in    
Wind  
Wind Speed 2 mph (SW)    
Max Wind Speed 9 mph    
Max Gust Speed -    
Visibility 8 miles    
Events Fog    
Averages and records for this station are not official NWS values.
T = Trace of Precipitation, MM = Missing Value Source: NWS Daily Summary

Daily Weather History Graph

Daily Weather History Graph

Search for Another Location

Airport or City:

Trip Planner

Search our weather history database for the weather conditions in past years. The results will help you decide how hot, cold, wet, or windy it might be!

Date:

Astronomy

May. 07, 2013 Rise Set
Actual Time 4:56 AM AKDT 8:42 PM AKDT
Civil Twilight 4:10 AM AKDT 9:29 PM AKDT
Nautical Twilight 3:05 AM AKDT 10:35 PM AKDT
Astronomical Twilight 1:21 AM AKDT 12:16 AM AKDT
Moon 3:58 AM AKDT (5/7) 6:32 PM AKDT (5/7)
Length of Visible Light 17h 18m
Length of Day
15h 46m
Waning Crescent, 5% of the Moon is Illuminated
May 7
Waning Crescent
May 9
New
May 17
First Quarter
May 24
Full
May 31
Last Quarter

Hourly Weather History & Observations

Time (AKDT) Temp. Windchill Dew Point Humidity Pressure Visibility Wind Dir Wind Speed Gust Speed Precip Events Conditions
12:53 AM 39.0 °F - 37.0 °F 93% 30.17 in 10.0 mi Calm Calm - N/A   Clear
1:53 AM 36.0 °F - 35.1 °F 97% 30.17 in 10.0 mi Calm Calm - N/A   Clear
2:08 AM 35.6 °F - 33.8 °F 93% 30.17 in 10.0 mi Calm Calm - N/A   Partly Cloudy
2:45 AM 37.4 °F 34.9 °F 35.6 °F 93% 30.16 in 2.5 mi NE 3.5 mph - N/A   Scattered Clouds
2:51 AM 37.4 °F 34.9 °F 35.6 °F 93% 30.16 in 9.0 mi NNE 3.5 mph - N/A   Mostly Cloudy
2:53 AM 37.0 °F - 36.0 °F 96% 30.16 in 8.0 mi Calm Calm - N/A   Mostly Cloudy
3:12 AM 37.4 °F - 35.6 °F 93% 30.16 in 9.0 mi Calm Calm - N/A   Scattered Clouds
3:34 AM 37.4 °F - 35.6 °F 93% 30.16 in 1.2 mi Calm Calm - N/A   Partly Cloudy
3:37 AM 35.6 °F - 35.6 °F 100% 30.16 in 0.8 mi Calm Calm - N/A   Mist
3:53 AM 35.1 °F - 34.0 °F 96% 30.16 in 0.5 mi Calm Calm - N/A Fog Fog
4:53 AM 34.0 °F - 32.0 °F 92% 30.15 in 0.2 mi Calm Calm - N/A Fog Fog
5:53 AM 34.0 °F - 33.1 °F 96% 30.14 in 0.2 mi Calm Calm - N/A Fog Fog
6:53 AM 37.0 °F - 37.0 °F 100% 30.14 in 0.8 mi Calm Calm - N/A   Mist
6:56 AM 37.4 °F - 37.4 °F 100% 30.14 in 2.0 mi Calm Calm - N/A   Overcast
7:13 AM 37.4 °F - 37.4 °F 100% 30.14 in 10.0 mi Calm Calm - N/A   Scattered Clouds
7:53 AM 45.0 °F 43.5 °F 41.0 °F 86% 30.14 in 10.0 mi WNW 3.5 mph - N/A   Clear
8:53 AM 48.9 °F - 39.0 °F 69% 30.13 in 10.0 mi North 5.8 mph - N/A   Clear
9:53 AM 53.1 °F - 35.1 °F 50% 30.12 in 10.0 mi West 6.9 mph - N/A   Clear
10:53 AM 55.9 °F - 35.1 °F 45% 30.11 in 10.0 mi Variable 4.6 mph - N/A   Clear
11:53 AM 57.9 °F - 39.0 °F 49% 30.10 in 10.0 mi SW 9.2 mph - N/A   Clear
12:53 PM 57.0 °F - 39.0 °F 51% 30.10 in 10.0 mi WSW 8.1 mph - N/A   Clear
1:53 PM 57.9 °F - 39.0 °F 49% 30.09 in 10.0 mi WSW 8.1 mph - N/A   Clear
2:53 PM 55.0 °F - 39.0 °F 55% 30.09 in 10.0 mi SSW 6.9 mph - N/A   Clear
3:53 PM 53.1 °F - 37.9 °F 57% 30.09 in 10.0 mi SSW 8.1 mph - N/A   Clear
4:53 PM 52.0 °F - 37.9 °F 59% 30.08 in 10.0 mi SSW 9.2 mph - N/A   Clear
5:53 PM 52.0 °F - 39.0 °F 61% 30.08 in 10.0 mi SSW 6.9 mph - N/A   Clear
6:53 PM 51.1 °F - 39.0 °F 63% 30.07 in 10.0 mi SSW 4.6 mph - N/A   Clear
7:53 PM 48.0 °F - 39.0 °F 71% 30.06 in 10.0 mi South 3.5 mph - N/A   Clear
8:53 PM 46.0 °F 44.8 °F 39.0 °F 76% 30.08 in 10.0 mi South 3.5 mph - N/A   Clear
9:53 PM 44.1 °F - 37.9 °F 79% 30.07 in 10.0 mi Calm Calm - N/A   Clear
10:53 PM 42.1 °F - 37.9 °F 85% 30.07 in 10.0 mi Calm Calm - N/A   Clear
11:53 PM 39.9 °F - 37.9 °F 93% 30.07 in 10.0 mi Calm Calm - N/A   Clear